| time (UTC) | temp F | wind direction | speed MPH | gust MPH | rain 1hr in | rain 24hr in | rain mn in | humidity % | barometer mb |
| 20260502223632 | 66 | 13 | 13.0 | 22.0 | 0.00 | 0.00 | 0.00 | 27 | 1011.0 |
| 20260502221516 | 65 | 9 | 14.0 | 23.0 | 0.00 | 0.00 | 0.00 | 28 | 1010.8 |
| 20260502220518 | 65 | 355 | 13.0 | 25.0 | 0.00 | 0.00 | 0.00 | 31 | 1010.7 |
| 20260502214320 | 65 | 12 | 13.0 | 30.0 | 0.00 | 0.00 | 0.00 | 32 | 1010.8 |
| 20260502213314 | 64 | 9 | 13.0 | 25.0 | 0.00 | 0.00 | 0.00 | 34 | 1010.9 |
| 20260502212304 | 65 | 296 | 14.0 | 25.0 | 0.00 | 0.00 | 0.00 | 35 | 1010.8 |
| 20260502211254 | 64 | 0 | 14.0 | 24.0 | 0.00 | 0.00 | 0.00 | 37 | 1010.8 |
| 20260502210230 | 64 | 351 | 14.0 | 24.0 | 0.00 | 0.00 | 0.00 | 37 | 1010.7 |
| 20260502205202 | 65 | 16 | 14.0 | 26.0 | 0.00 | 0.00 | 0.00 | 39 | 1010.6 |
| 20260502204226 | 65 | 355 | 15.0 | 26.0 | 0.00 | 0.00 | 0.00 | 33 | 1010.7 |
| 20260502202028 | 66 | 19 | 13.0 | 23.0 | 0.00 | 0.00 | 0.00 | 36 | 1010.5 |
| 20260502201036 | 65 | 303 | 14.0 | 24.0 | 0.00 | 0.00 | 0.00 | 35 | 1010.6 |
| 20260502200041 | 65 | 346 | 15.0 | 26.0 | 0.00 | 0.00 | 0.00 | 35 | 1010.7 |
| 20260502195105 | 65 | 341 | 15.0 | 26.0 | 0.00 | 0.00 | 0.00 | 37 | 1010.6 |
| 20260502194044 | 66 | 346 | 16.0 | 26.0 | 0.00 | 0.00 | 0.00 | 36 | 1010.7 |
| 20260502193028 | 66 | 345 | 16.0 | 26.0 | 0.00 | 0.00 | 0.00 | 37 | 1010.5 |
| 20260502192003 | 66 | 321 | 18.0 | 29.0 | 0.00 | 0.00 | 0.00 | 36 | 1010.6 |
| 20260502191017 | 66 | 327 | 17.0 | 29.0 | 0.00 | 0.00 | 0.00 | 37 | 1010.6 |
| 20260502184856 | 66 | 327 | 16.0 | 28.0 | 0.00 | 0.00 | 0.00 | 39 | 1010.7 |
| 20260502183901 | 65 | 329 | 16.0 | 29.0 | 0.00 | 0.00 | 0.00 | 41 | 1010.6 |
| 20260502182848 | 65 | 344 | 17.0 | 29.0 | 0.00 | 0.00 | 0.00 | 40 | 1010.6 |
| 20260502181845 | 65 | 20 | 17.0 | 28.0 | 0.00 | 0.00 | 0.00 | 42 | 1010.6 |
| 20260502180811 | 65 | 345 | 19.0 | 28.0 | 0.00 | 0.00 | 0.00 | 40 | 1010.7 |
| 20260502163744 | 62 | 325 | 19.0 | 29.0 | 0.00 | 0.00 | 0.00 | 44 | 1010.5 |
| 20260502162757 | 62 | 323 | 17.0 | 28.0 | 0.00 | 0.00 | 0.00 | 45 | 1010.5 |
| 20260502161742 | 62 | 10 | 16.0 | 29.0 | 0.00 | 0.00 | 0.00 | 45 | 1010.5 |
| 20260502151447 | 57 | 321 | 19.0 | 29.0 | 0.00 | 0.00 | 0.00 | 51 | 1010.4 |
| 20260502150420 | 56 | 319 | 20.0 | 30.0 | 0.00 | 0.00 | 0.00 | 51 | 1010.5 |
| 20260502130108 | 51 | 0 | 10.0 | 15.0 | 0.00 | 0.00 | 0.00 | 62 | 1009.5 |
| 20260502122859 | 50 | 0 | 10.0 | 15.0 | 0.00 | 0.00 | 0.00 | 59 | 1009.3 |
| 20260502120654 | 50 | 297 | 9.0 | 14.0 | 0.00 | 0.00 | 0.00 | 58 | 1009.2 |
| 20260502115626 | 50 | 0 | 9.0 | 15.0 | 0.00 | 0.00 | 0.00 | 59 | 1009.2 |
| 20260502113457 | 50 | 0 | 9.0 | 14.0 | 0.00 | 0.00 | 0.00 | 58 | 1009.2 |
| 20260502111411 | 48 | 0 | 6.0 | 8.0 | 0.00 | 0.00 | 0.00 | 56 | 1008.8 |
| 20260502110352 | 48 | 0 | 6.0 | 10.0 | 0.00 | 0.00 | 0.00 | 55 | 1008.7 |
| 20260502105345 | 48 | 0 | 6.0 | 10.0 | 0.00 | 0.00 | 0.00 | 55 | 1008.9 |
| 20260502104330 | 48 | 0 | 4.0 | 8.0 | 0.00 | 0.00 | 0.00 | 55 | 1008.8 |
| 20260502103345 | 48 | 0 | 5.0 | 10.0 | 0.00 | 0.00 | 0.00 | 52 | 1008.7 |
| 20260502102401 | 49 | 0 | 6.0 | 10.0 | 0.00 | 0.00 | 0.00 | 53 | 1008.5 |
| 20260502100218 | 49 | 229 | 7.0 | 10.0 | 0.00 | 0.00 | 0.00 | 51 | 1008.8 |
| 20260502090126 | 49 | 0 | 2.0 | 6.0 | 0.00 | 0.00 | 0.00 | 48 | 1009.2 |
| 20260502070929 | 49 | 0 | 7.0 | 11.0 | 0.00 | 0.00 | 0.00 | 50 | 1010.0 |
| 20260502065922 | 47 | 0 | 6.0 | 9.0 | 0.00 | 0.00 | 0.00 | 53 | 1010.3 |
| 20260502064900 | 47 | 0 | 2.0 | 6.0 | 0.00 | 0.00 | 0.00 | 55 | 1010.4 |
| 20260502063902 | 47 | 0 | 3.0 | 7.0 | 0.00 | 0.00 | 0.00 | 54 | 1010.4 |
| 20260502062853 | 47 | 0 | 4.0 | 8.0 | 0.00 | 0.00 | 0.00 | 52 | 1010.5 |
| 20260502061854 | 48 | 0 | 6.0 | 8.0 | 0.00 | 0.00 | 0.00 | 51 | 1010.6 |
| 20260502060858 | 48 | 0 | 5.0 | 8.0 | 0.00 | 0.00 | 0.00 | 51 | 1010.7 |
| 20260502055837 | 48 | 0 | 8.0 | 11.0 | 0.00 | 0.00 | 0.00 | 51 | 1010.7 |
| 20260502054817 | 48 | 0 | 8.0 | 11.0 | 0.00 | 0.00 | 0.00 | 51 | 1010.4 |
| 20260502053816 | 47 | 195 | 8.0 | 11.0 | 0.00 | 0.00 | 0.00 | 52 | 1010.7 |
| 20260502052806 | 47 | 188 | 8.0 | 11.0 | 0.00 | 0.00 | 0.00 | 53 | 1010.7 |
| 20260502051829 | 46 | 0 | 7.0 | 11.0 | 0.00 | 0.00 | 0.00 | 53 | 1010.9 |
| 20260502050806 | 47 | 170 | 4.0 | 9.0 | 0.00 | 0.00 | 0.00 | 52 | 1011.0 |
| 20260502044714 | 47 | 195 | 5.0 | 11.0 | 0.00 | 0.00 | 0.00 | 51 | 1011.2 |
| 20260502043700 | 47 | 195 | 5.0 | 10.0 | 0.00 | 0.00 | 0.00 | 51 | 1011.5 |
| 20260502042656 | 48 | 0 | 7.0 | 10.0 | 0.00 | 0.00 | 0.00 | 50 | 1011.6 |
| 20260502041647 | 48 | 0 | 6.0 | 9.0 | 0.00 | 0.00 | 0.00 | 48 | 1011.7 |
| 20260502040619 | 49 | 0 | 3.0 | 7.0 | 0.00 | 0.00 | 0.00 | 48 | 1011.8 |
| 20260502035545 | 49 | 0 | 4.0 | 8.0 | 0.00 | 0.00 | 0.00 | 47 | 1011.9 |
| 20260502034512 | 50 | 0 | 3.0 | 11.0 | 0.00 | 0.00 | 0.00 | 46 | 1012.0 |
| 20260502033458 | 50 | 180 | 4.0 | 11.0 | 0.00 | 0.00 | 0.00 | 45 | 1012.2 |
| 20260502032427 | 50 | 173 | 3.0 | 6.0 | 0.00 | 0.00 | 0.00 | 45 | 1012.3 |
| 20260502031407 | 51 | 188 | 3.0 | 6.0 | 0.00 | 0.00 | 0.00 | 44 | 1012.3 |
| 20260502030336 | 51 | 169 | 3.0 | 6.0 | 0.00 | 0.00 | 0.00 | 43 | 1012.4 |
| 20260502025319 | 52 | 180 | 3.0 | 6.0 | 0.00 | 0.00 | 0.00 | 43 | 1012.5 |
| 20260502024316 | 52 | 189 | 3.0 | 6.0 | 0.00 | 0.00 | 0.00 | 42 | 1012.4 |
| 20260502023308 | 53 | 180 | 3.0 | 6.0 | 0.00 | 0.00 | 0.00 | 40 | 1012.6 |
| 20260502022306 | 54 | 182 | 3.0 | 6.0 | 0.00 | 0.00 | 0.00 | 38 | 1012.5 |
| 20260502021329 | 55 | 198 | 4.0 | 7.0 | 0.00 | 0.00 | 0.00 | 37 | 1012.5 |
| 20260502020349 | 57 | 200 | 4.0 | 7.0 | 0.00 | 0.00 | 0.00 | 36 | 1012.6 |
| 20260502015359 | 59 | 192 | 4.0 | 6.0 | 0.00 | 0.00 | 0.00 | 34 | 1012.6 |
| 20260502014408 | 61 | 0 | 5.0 | 6.0 | 0.00 | 0.00 | 0.00 | 29 | 1012.6 |
| 20260502013422 | 63 | 0 | 4.0 | 7.0 | 0.00 | 0.00 | 0.00 | 26 | 1012.7 |
| 20260502012354 | 65 | 219 | 7.0 | 12.0 | 0.00 | 0.00 | 0.00 | 23 | 1012.7 |
| 20260502011348 | 66 | 0 | 8.0 | 12.0 | 0.00 | 0.00 | 0.00 | 23 | 1012.7 |
| 20260502004152 | 68 | 252 | 8.0 | 14.0 | 0.00 | 0.00 | 0.00 | 21 | 1013.0 |
| 20260502003203 | 69 | 229 | 8.0 | 14.0 | 0.00 | 0.00 | 0.00 | 20 | 1013.1 |
| 20260502002225 | 69 | 246 | 7.0 | 14.0 | 0.00 | 0.00 | 0.00 | 20 | 1013.2 |
| 20260502001228 | 69 | 240 | 9.0 | 14.0 | 0.00 | 0.00 | 0.00 | 19 | 1013.3 |
| 20260502000200 | 69 | 227 | 7.0 | 12.0 | 0.00 | 0.00 | 0.00 | 18 | 1013.5 |
| 20260501235142 | 69 | 241 | 8.0 | 14.0 | 0.00 | 0.00 | 0.00 | 18 | 1013.5 |
| 20260501231939 | 70 | 265 | 6.0 | 15.0 | 0.00 | 0.00 | 0.00 | 18 | 1013.8 |
| 20260501225818 | 69 | 208 | 8.0 | 18.0 | 0.00 | 0.00 | 0.00 | 18 | 1014.0 |
| 20260501224802 | 69 | 258 | 9.0 | 18.0 | 0.00 | 0.00 | 0.00 | 19 | 1014.1 |